• In Belarus
  • List of Countries
  • For 7 days
  • Water Temperature
  • Weather Map
  • Weather Widgets
  • user-avatar
    Login

    Hourly Weather Wiktoria

    Today, 12 November, Tuesday

    Time Temperature Precipitation Wind Pressure Humidity
    00:00 +20°C° 0 mm 5 mps 741 mmHg 24%
    01:00 +20°C° 0 mm 5 mps 740 mmHg 24%
    02:00 +20°C° 0 mm 5 mps 740 mmHg 23%
    03:00 +20°C° 0 mm 4 mps 740 mmHg 23%
    04:00 +20°C° 0 mm 4 mps 740 mmHg 21%
    05:00 +19°C° 0 mm 6 mps 741 mmHg 35%
    06:00 +17°C° 0 mm 7 mps 741 mmHg 50%
    07:00 +15°C° 0 mm 9 mps 742 mmHg 65%
    08:00 +16°C° 0 mm 8 mps 742 mmHg 59%
    09:00 +16°C° 0 mm 8 mps 743 mmHg 53%
    10:00 +16°C° 0 mm 8 mps 743 mmHg 47%
    11:00 +17°C° 0 mm 8 mps 743 mmHg 43%
    12:00 +18°C° 0 mm 8 mps 744 mmHg 38%
    13:00 +20°C° 0 mm 8 mps 744 mmHg 33%
    14:00 +18°C° 0 mm 8 mps 744 mmHg 34%
    15:00 +18°C° 0 mm 9 mps 744 mmHg 34%
    16:00 +17°C° 0 mm 9 mps 744 mmHg 34%
    17:00 +15°C° 0 mm 8 mps 745 mmHg 39%
    18:00 +14°C° 0 mm 6 mps 746 mmHg 45%
    19:00 +12°C° 0 mm 5 mps 747 mmHg 50%
    20:00 +9°C° 0 mm 5 mps 748 mmHg 56%
    21:00 +8°C° 0 mm 4 mps 749 mmHg 62%
    22:00 +7°C° 0 mm 4 mps 749 mmHg 69%
    23:00 +6°C° 0 mm 4 mps 749 mmHg 72%

    Tomorrow, 13 November, Wednesday

    Time Temperature Precipitation Wind Pressure Humidity
    00:00 +5°C° 0 mm 4 mps 750 mmHg 75%
    01:00 +4°C° 0 mm 4 mps 750 mmHg 78%
    02:00 +3°C° 0 mm 3 mps 750 mmHg 81%
    03:00 +3°C° 0 mm 3 mps 750 mmHg 84%
    04:00 +3°C° 0 mm 2 mps 750 mmHg 86%
    05:00 +4°C° 0 mm 3 mps 750 mmHg 80%
    06:00 +5°C° 0 mm 4 mps 751 mmHg 74%
    07:00 +7°C° 0 mm 4 mps 751 mmHg 68%
    08:00 +9°C° 0 mm 5 mps 751 mmHg 60%
    09:00 +12°C° 0 mm 5 mps 751 mmHg 52%
    10:00 +14°C° 0 mm 5 mps 751 mmHg 45%
    11:00 +15°C° 0 mm 5 mps 750 mmHg 43%
    12:00 +17°C° 0 mm 5 mps 750 mmHg 41%
    13:00 +19°C° 0 mm 5 mps 750 mmHg 39%
    14:00 +19°C° 0 mm 6 mps 749 mmHg 40%
    15:00 +19°C° 0 mm 6 mps 749 mmHg 41%
    16:00 +19°C° 0 mm 6 mps 749 mmHg 43%
    17:00 +17°C° 0 mm 5 mps 749 mmHg 48%
    18:00 +17°C° 0 mm 4 mps 749 mmHg 52%
    19:00 +15°C° 0 mm 4 mps 750 mmHg 57%
    20:00 +14°C° 0 mm 3 mps 750 mmHg 60%
    21:00 +14°C° 0 mm 3 mps 750 mmHg 63%
    22:00 +13°C° 0 mm 3 mps 751 mmHg 66%
    23:00 +12°C° 0 mm 3 mps 751 mmHg 72%

    Day after tomorrow, 14 November, Thursday

    Time Temperature Precipitation Wind Pressure Humidity
    00:00 +10°C° 0 mm 3 mps 751 mmHg 79%
    01:00 +9°C° 0 mm 3 mps 750 mmHg 86%
    02:00 +9°C° 0 mm 2 mps 750 mmHg 89%
    03:00 +8°C° 0 mm 2 mps 750 mmHg 92%
    04:00 +8°C° 0 mm 2 mps 750 mmHg 95%
    05:00 +9°C° 0 mm 3 mps 750 mmHg 89%
    06:00 +10°C° 0 mm 3 mps 750 mmHg 84%
    07:00 +12°C° 0 mm 3 mps 751 mmHg 78%
    08:00 +14°C° 0 mm 3 mps 751 mmHg 68%
    09:00 +17°C° 0 mm 3 mps 751 mmHg 59%
    10:00 +19°C° 0 mm 3 mps 751 mmHg 49%
    11:00 +20°C° 0 mm 4 mps 750 mmHg 46%
    12:00 +21°C° 0 mm 4 mps 750 mmHg 44%
    13:00 +22°C° 0 mm 4 mps 749 mmHg 41%
    14:00 +23°C° 0 mm 4 mps 749 mmHg 41%
    15:00 +23°C° 0 mm 5 mps 748 mmHg 41%
    16:00 +23°C° 0 mm 5 mps 747 mmHg 41%
    17:00 +21°C° 0 mm 4 mps 747 mmHg 48%
    18:00 +19°C° 0 mm 3 mps 747 mmHg 55%
    19:00 +17°C° 0 mm 2 mps 747 mmHg 61%
    20:00 +16°C° 0 mm 2 mps 747 mmHg 67%
    21:00 +14°C° 0 mm 1 mps 748 mmHg 72%
    22:00 +13°C° 0 mm 1 mps 748 mmHg 77%
    23:00 +12°C° 0 mm 1 mps 747 mmHg 81%

    15 November, Friday

    Time Temperature Precipitation Wind Pressure Humidity
    00:00 +12°C° 0 mm 1 mps 747 mmHg 84%
    01:00 +11°C° 0 mm 1 mps 747 mmHg 87%
    02:00 +9°C° 0 mm 2 mps 747 mmHg 89%
    03:00 +8°C° 0 mm 2 mps 747 mmHg 91%
    04:00 +8°C° 0 mm 2 mps 747 mmHg 93%
    05:00 +9°C° 0 mm 2 mps 747 mmHg 89%
    06:00 +10°C° 0 mm 3 mps 747 mmHg 84%
    07:00 +11°C° 0 mm 3 mps 748 mmHg 79%
    08:00 +13°C° 0 mm 3 mps 748 mmHg 69%
    09:00 +15°C° 0 mm 4 mps 748 mmHg 59%
    10:00 +18°C° 0 mm 4 mps 748 mmHg 50%
    11:00 +19°C° 0 mm 5 mps 747 mmHg 45%
    12:00 +21°C° 0 mm 5 mps 747 mmHg 40%
    13:00 +22°C° 0 mm 6 mps 747 mmHg 35%
    14:00 +22°C° 0 mm 6 mps 747 mmHg 37%
    15:00 +21°C° 0 mm 7 mps 746 mmHg 40%
    16:00 +21°C° 0 mm 7 mps 746 mmHg 42%
    17:00 +19°C° 0 mm 6 mps 747 mmHg 47%
    18:00 +17°C° 0 mm 5 mps 748 mmHg 52%
    19:00 +16°C° 0 mm 3 mps 748 mmHg 57%
    20:00 +13°C° 0 mm 3 mps 749 mmHg 66%
    21:00 +12°C° 0 mm 3 mps 750 mmHg 75%
    22:00 +10°C° 0 mm 3 mps 750 mmHg 84%
    23:00 +9°C° 0 mm 3 mps 751 mmHg 86%

    16 November, Saturday

    Time Temperature Precipitation Wind Pressure Humidity
    00:00 +7°C° 0 mm 3 mps 751 mmHg 88%
    01:00 +5°C° 0 mm 3 mps 751 mmHg 90%
    02:00 +4°C° 0 mm 3 mps 751 mmHg 90%
    03:00 +4°C° 0 mm 3 mps 751 mmHg 91%
    04:00 +3°C° 0 mm 3 mps 751 mmHg 91%
    05:00 +5°C° 0 mm 3 mps 752 mmHg 83%
    06:00 +6°C° 0 mm 4 mps 752 mmHg 74%
    07:00 +8°C° 0 mm 4 mps 753 mmHg 65%
    08:00 +11°C° 0 mm 4 mps 753 mmHg 57%
    09:00 +14°C° 0 mm 4 mps 753 mmHg 48%
    10:00 +17°C° 0 mm 4 mps 753 mmHg 40%
    11:00 +18°C° 0 mm 4 mps 752 mmHg 36%
    12:00 +20°C° 0 mm 4 mps 752 mmHg 32%
    13:00 +21°C° 0 mm 4 mps 751 mmHg 28%
    14:00 +22°C° 0 mm 4 mps 751 mmHg 29%
    15:00 +22°C° 0 mm 4 mps 751 mmHg 29%
    16:00 +22°C° 0 mm 4 mps 751 mmHg 29%
    17:00 +20°C° 0 mm 4 mps 751 mmHg 35%
    18:00 +18°C° 0 mm 4 mps 751 mmHg 42%
    19:00 +15°C° 0 mm 4 mps 752 mmHg 49%
    20:00 +14°C° 0 mm 4 mps 752 mmHg 52%
    21:00 +13°C° 0 mm 4 mps 752 mmHg 55%
    22:00 +12°C° 0 mm 3 mps 753 mmHg 58%
    23:00 +10°C° 0 mm 3 mps 753 mmHg 66%

    17 November, Sunday

    Time Temperature Precipitation Wind Pressure Humidity
    00:00 +9°C° 0 mm 3 mps 752 mmHg 74%
    01:00 +7°C° 0 mm 3 mps 752 mmHg 81%
    02:00 +7°C° 0 mm 3 mps 752 mmHg 84%
    03:00 +5°C° 0 mm 3 mps 752 mmHg 87%
    04:00 +4°C° 0 mm 3 mps 752 mmHg 89%
    05:00 +7°C° 0 mm 3 mps 752 mmHg 81%
    06:00 +8°C° 0 mm 3 mps 753 mmHg 73%
    07:00 +10°C° 0 mm 3 mps 753 mmHg 66%
    08:00 +12°C° 0 mm 3 mps 753 mmHg 56%
    09:00 +14°C° 0 mm 4 mps 752 mmHg 45%
    10:00 +18°C° 0 mm 4 mps 752 mmHg 35%
    11:00 +19°C° 0 mm 4 mps 752 mmHg 33%
    12:00 +20°C° 0 mm 5 mps 751 mmHg 31%
    13:00 +22°C° 0 mm 5 mps 751 mmHg 29%
    14:00 +22°C° 0 mm 5 mps 751 mmHg 30%
    15:00 +22°C° 0 mm 5 mps 750 mmHg 32%
    16:00 +22°C° 0 mm 6 mps 750 mmHg 33%
    17:00 +20°C° 0 mm 5 mps 750 mmHg 38%
    18:00 +17°C° 0 mm 5 mps 750 mmHg 44%
    19:00 +15°C° 0 mm 4 mps 751 mmHg 49%
    20:00 +13°C° 0 mm 4 mps 751 mmHg 54%
    21:00 +12°C° 0 mm 4 mps 751 mmHg 58%
    22:00 +10°C° 0 mm 4 mps 752 mmHg 62%
    23:00 +9°C° 0 mm 3 mps 751 mmHg 67%
    Show more